Lid_Strength_Index
2 4 6 6 10 11 13 11 9 10 9 8 6 7 8 8 9 12 3 2 2 2 0 -0 -1 -1 -1 -1 -1 -2 -2 -2 -2 -2 -2 -2 -2 -2 -1 -1 -1 -1 -1 -1 -1 -1 -1 -1 -1
3 4 5 8 12 15 13 10 10 9 8 6 7 7 8 9 6 6 5 3 2 2 1 0 -0 -1 -1 -1 -1 -1 -1 -1 -1 -1 -1 -1 -0 -0 -0 -0 0 -0 -0 -0 0 1 1 1 1
4 4 8 11 13 14 14 12 11 10 9 9 8 7 8 7 4 5 3 3 2 2 1 0 -0 -1 -1 -1 -1 -1 -0 -0 -0 0 0 1 1 1 1 1 1 1 1 1 1 2 2 2 3
8 8 9 13 14 12 12 12 10 10 9 9 8 10 8 5 4 3 2 2 3 2 1 1 -0 -0 -0 -0 -0 -0 0 1 1 1 1 2 2 2 2 2 2 2 2 2 3 3 3 4 4
8 10 14 14 14 12 12 11 10 10 10 10 9 10 9 4 1 2 2 3 4 3 2 2 1 1 0 0 1 1 1 1 1 2 2 2 2 2 3 3 3 3 3 3 4 4 4 4 5
11 11 16 17 15 12 12 11 10 11 10 10 10 9 9 4 2 2 2 3 3 3 2 3 2 1 1 2 2 2 2 2 3 3 3 3 3 4 4 4 4 4 4 4 4 5 5 5 5
11 13 15 16 15 14 12 11 12 12 11 10 9 11 8 6 3 2 1 2 3 4 4 4 4 4 3 2 3 3 3 4 4 5 5 5 5 5 5 5 5 5 5 5 5 4 4 4 4
9 12 15 15 15 14 12 11 11 10 10 8 8 10 9 6 2 3 1 2 2 3 5 5 5 6 6 6 4 4 5 6 6 6 6 6 6 7 6 7 6 5 5 5 4 4 4 4 4
8 13 15 14 14 13 11 11 10 10 10 10 9 9 5 3 3 4 5 5 5 4 5 5 6 6 7 6 6 5 6 6 7 8 7 8 10 10 9 7 5 5 5 4 4 4 5 5 6
11 14 13 12 13 13 12 11 11 11 11 10 9 4 3 3 4 5 6 7 7 7 7 7 7 7 7 7 7 8 8 9 10 10 10 9 10 10 8 7 6 5 5 5 5 5 5 7 9
12 13 12 12 11 11 11 12 11 12 13 12 10 6 5 5 5 5 6 7 7 8 7 7 7 8 10 8 8 9 9 10 10 9 9 9 9 10 10 10 10 10 8 10 9 10 10 10 10
12 11 11 10 11 11 12 11 12 12 12 10 7 5 5 5 5 5 6 6 7 8 8 8 8 8 8 8 9 9 9 9 9 9 8 9 9 10 10 10 11 11 11 11 11 11 11 11 10
12 11 10 11 11 12 11 13 13 13 12 10 7 5 5 5 5 4 4 5 7 9 8 8 8 8 8 8 9 9 9 9 9 9 8 9 9 10 10 10 11 11 11 11 11 11 11 11 11
11 11 11 10 10 10 12 12 12 13 11 11 10 9 7 6 5 5 5 5 7 8 8 8 8 8 8 9 9 9 9 10 9 10 10 9 10 11 10 11 11 11 11 11 11 11 11 11 11
11 13 12 12 11 11 11 13 13 12 11 12 10 10 9 8 7 6 5 6 7 7 7 8 8 7 8 9 9 9 9 9 10 10 10 10 10 11 11 11 11 11 11 11 11 11 11 11 11
13 14 16 12 11 11 12 15 12 12 12 12 12 11 10 9 8 8 5 4 6 7 8 7 6 8 8 8 9 8 9 9 10 10 10 9 9 10 11 10 11 10 10 10 11 11 11 11 11
14 17 16 14 11 12 13 14 12 12 11 12 12 12 11 11 10 10 9 6 6 6 7 7 7 8 8 8 8 9 9 9 9 10 10 9 9 9 10 10 10 10 10 11 11 11 11 11 11
17 17 15 15 14 14 14 14 13 13 13 14 13 13 12 11 11 10 9 9 7 7 7 8 8 8 8 8 9 9 9 9 9 10 10 9 9 9 10 10 11 11 11 11 11 12 11 12 12
15 15 16 14 13 15 15 16 15 14 13 14 14 13 12 12 10 10 9 10 9 8 8 8 8 8 9 10 10 10 10 10 10 9 8 9 9 9 10 11 11 12 12 12 12 12 12 12 12
14 16 16 14 13 15 15 16 14 13 14 14 14 13 12 12 11 10 9 9 9 8 8 8 8 8 8 9 9 9 9 10 9 9 9 9 9 9 10 11 12 12 12 12 12 12 13 13 12
16 16 17 16 14 14 16 17 15 13 13 12 12 12 12 11 11 10 9 10 9 9 9 8 8 8 8 8 9 10 10 10 10 10 10 9 9 9 9 10 11 11 11 12 12 12 12 13 12
16 14 14 16 19 19 16 23 17 15 14 13 13 13 13 12 10 9 9 9 9 9 8 8 7 8 8 8 9 10 11 11 10 10 9 9 9 9 9 9 10 11 11 11 11 10 12 12 13
15 14 15 16 21 22 19 24 18 15 16 15 14 13 13 12 11 10 9 8 8 8 8 8 7 7 7 7 8 9 9 9 9 9 9 9 9 8 9 9 10 10 10 10 10 11 11 11 11
13 15 16 17 21 26 25 22 19 17 15 15 14 13 12 12 11 10 10 9 9 9 9 8 7 7 7 7 7 8 8 8 9 9 9 9 8 8 8 8 9 10 10 10 10 10 10 10 10
15 20 25 22 25 25 27 23 20 16 14 14 14 13 13 12 12 11 11 11 10 10 10 9 9 9 8 8 8 8 8 9 9 9 9 9 9 9 8 8 9 9 9 9 9 10 10 10 11
17 19 22 28 24 22 27 24 18 14 13 13 13 13 12 12 12 12 11 11 11 10 10 10 10 10 9 9 9 9 9 9 9 9 9 9 9 9 8 8 9 9 9 9 9 10 10 10 11
17 22 17 26 31 27 23 19 15 15 15 14 14 13 14 13 12 12 12 12 12 12 12 11 11 11 10 10 10 10 10 10 10 9 9 9 9 8 8 9 9 9 9 9 9 10 10 10 11
17 16 23 24 29 30 24 27 19 19 19 18 15 16 15 14 13 12 12 11 11 12 12 12 12 12 11 11 11 10 10 10 10 10 10 10 9 9 9 9 9 10 10 9 10 10 10 11 11
20 21 21 20 19 25 28 22 19 20 19 18 18 15 19 18 14 13 12 12 11 12 13 13 12 12 12 12 11 11 11 11 11 11 11 10 10 9 9 9 9 10 10 10 10 10 10 11 11
16 18 17 23 25 23 22 23 20 18 18 17 17 17 18 19 17 17 14 13 12 12 13 13 13 13 12 12 12 12 11 11 12 12 11 11 11 10 10 9 9 9 10 10 10 10 10 11 11